EW1931 Weather Reports


time (UTC)temp
F
wind
direction
speed
knots
gust
knots
rain 1hr
in
rain 24hr
in
rain mn
in
humidity
%
barometer
mb
20260503204519 74 300 15.6 26.1 0.00 0.00 0.00 16 922.2
20260503203014 73 297 14.8 20.9 0.00 0.00 0.00 17 922.4
20260503201510 73 305 10.4 21.7 0.00 0.00 0.00 18 922.6
20260503200009 73 315 10.4 25.2 0.00 0.00 0.00 18 922.6
20260503194548 72 288 13.0 19.1 0.00 0.00 0.00 19 922.9
20260503193049 72 278 12.2 16.5 0.00 0.00 0.00 19 923.0
20260503190024 72 299 13.0 19.1 0.00 0.00 0.00 21 923.3
20260503184506 72 252 7.8 19.1 0.00 0.00 0.00 21 923.5
20260503183002 72 205 11.3 19.1 0.00 0.00 0.00 22 923.6
20260503181603 72 261 16.5 20.9 0.00 0.00 0.00 22 923.8
20260503180041 71 269 9.6 20.0 0.00 0.00 0.00 25 924.0
20260503174528 71 283 8.7 15.6 0.00 0.00 0.00 25 924.0
20260503173024 70 273 9.6 16.5 0.00 0.00 0.00 27 924.0
20260503171559 68 252 7.8 11.3 0.00 0.00 0.00 33 924.3
20260503100107 46 259 9.6 12.2 0.00 0.00 0.00 73 926.3
20260503081511 44 286 7.8 8.7 0.00 0.00 0.00 70 926.9
20260503071535 46 288 7.0 7.8 0.00 0.00 0.00 67 927.2
20260503060116 50 261 7.0 8.7 0.00 0.00 0.00 56 927.6
20260503053013 53 207 4.3 6.1 0.00 0.00 0.00 51 927.7
20260503051515 54 213 5.2 7.8 0.00 0.00 0.00 48 927.8
20260503050055 52 215 8.7 13.0 0.00 0.00 0.00 50 927.8
20260503044556 52 84 4.3 8.7 0.00 0.00 0.00 51 927.8
20260503043040 54 107 3.5 4.3 0.00 0.00 0.00 50 927.8
20260503041536 53 61 1.7 4.3 0.00 0.00 0.00 50 927.8
20260503040026 52 86 2.6 5.2 0.00 0.00 0.00 51 927.8
20260503034518 52 69 3.5 7.0 0.00 0.00 0.00 51 927.7
20260503033003 52 68 2.6 7.0 0.00 0.00 0.00 51 927.6
20260503031504 53 78 2.6 4.3 0.00 0.00 0.00 50 927.6
20260503030005 54 59 3.5 5.2 0.00 0.00 0.00 47 927.3
20260503024503 57 42 3.5 5.2 0.00 0.00 0.00 44 927.3
20260503023003 58 90 7.0 7.8 0.00 0.00 0.00 45 927.3
20260503021502 60 78 2.6 5.2 0.00 0.00 0.00 43 927.3
20260503020001 62 76 3.5 7.0 0.00 0.00 0.00 41 927.2
20260503014603 63 76 3.5 8.7 0.00 0.00 0.00 39 927.2
20260503014502 63 81 2.6 8.7 0.00 0.00 0.00 38 927.2
20260503013103 64 84 2.6 7.8 0.00 0.00 0.00 37 927.2
20260503011608 64 79 1.7 4.3 0.00 0.00 0.00 36 927.2
20260503010121 65 5 0.9 5.2 0.00 0.00 0.00 34 927.3
20260503004557 66 342 2.6 5.2 0.00 0.00 0.00 35 927.3
20260503003100 67 342 2.6 6.1 0.00 0.00 0.00 34 927.3
20260503001600 66 338 3.5 7.0 0.00 0.00 0.00 34 927.5
20260503000035 67 350 7.8 10.4 0.00 0.00 0.00 33 927.4
20260502234538 67 35 3.5 8.7 0.00 0.00 0.00 33 927.6
20260502233018 68 229 4.3 9.6 0.00 0.00 0.00 33 927.6
20260502231516 67 5 5.2 13.0 0.00 0.00 0.00 33 927.9
20260502230056 67 31 1.7 10.4 0.00 0.00 0.00 34 928.1
20260502224601 67 216 2.6 10.4 0.00 0.00 0.00 35 928.1
20260502223037 67 355 5.2 8.7 0.00 0.00 0.00 34 928.2
20260502221537 65 28 0.9 8.7 0.00 0.00 0.00 36 928.3
20260502220025 66 286 3.5 7.0 0.00 0.00 0.00 35 928.3
20260502214535 67 309 6.1 12.2 0.00 0.00 0.00 35 928.6
20260502213028 67 24 5.2 11.3 0.00 0.00 0.00 35 928.6
20260502211527 67 335 6.1 12.2 0.00 0.00 0.00 35 928.8
20260502210028 66 336 7.0 11.3 0.00 0.00 0.00 37 929.0